Location: ??????
(33.3472°N, 35.4764°E)
Time: 10:30:40
(UTC+00:00)

Cosmos 1725 Rocket - Pass Details

Date: 21 August 2019
Orbit: 961 x 992 km, 82.9° (Epoch: 16 September)

Event Time Altitude Azimuth Distance (km) Brightness Sun altitude
Rises 00:39:22 0° 353° (N) 3,663 7.4 -27.8°
Reaches altitude 10° 00:41:53 10° 353° (N) 2,710 6.7 -27.3°
Maximum altitude 00:48:05 86° 266° (W) 969 3.8 -26.3°
Enters shadow 00:49:47 51° 181° (S) 1,192 4.2 -26.0°
